Location: Passo di Treia
(43.2833°N, 13.3333°E)
Time: 05:34:54
(UTC+00:00)

Cosmos 1666 - Pass Details

Date: 09 December 2019
Orbit: 498 x 521 km, 82.5° (Epoch: 22 January)

Event Time Altitude Azimuth Distance (km) Brightness Sun altitude
Rises 17:14:11 0° 349° (N) 2,606 6.2 -18.1°
Reaches altitude 10° 17:16:19 10° 347° (NNW) 1,715 5.3 -18.5°
Maximum altitude 17:20:03 70° 264° (W) 536 2.9 -19.1°
Drops below altitude 10° 17:23:44 10° 181° (S) 1,695 5.5 -19.8°
Sets 17:25:50 0° 179° (S) 2,572 6.4 -20.2°
